Location: Andershausen
(51.8462°N, 9.8595°E)
Time: 06:11:33
(UTC+00:00)

CZ-4C R/B - Pass Details

Date: 18 November 2025
Orbit: 487 x 1493 km, 63.4° (Epoch: 11 December)

Event Time Altitude Azimuth Distance (km) Brightness Sun altitude
Rises 16:55:45 0° 268° (W) 2,959 6.8 -13.6°
Reaches altitude 10° 16:58:02 10° 279° (W) 2,172 5.5 -14.0°
Maximum altitude 17:02:32 33° 343° (NNW) 1,373 3.3 -14.6°
Enters shadow 17:07:06 14° 41° (NE) 2,397 4.1 -15.3°
